| time (UTC) | temp F | wind direction | speed MPH | gust MPH | rain 1hr in | rain 24hr in | rain mn in | humidity % | barometer mb |
| 20260905034005 | 61 | 334 | 3.0 | 14.0 | 0.00 | 0.16 | 0.01 | 91 | 1010.8 |
| 20260905033007 | 61 | 213 | 6.0 | 9.0 | 0.00 | 0.16 | 0.01 | 91 | 1010.8 |
| 20260905032006 | 61 | 348 | 1.0 | 9.0 | 0.00 | 0.16 | 0.01 | 91 | 1010.7 |
| 20260905031005 | 61 | 158 | 2.0 | 8.0 | 0.00 | 0.16 | 0.01 | 91 | 1010.5 |
| 20260905030006 | 61 | 195 | 4.0 | 10.0 | 0.00 | 0.16 | 0.01 | 91 | 1010.4 |
| 20260905025007 | 61 | 195 | 5.0 | 9.0 | 0.00 | 0.16 | 0.01 | 91 | 1010.1 |
| 20260905024005 | 61 | 205 | 3.0 | 13.0 | 0.00 | 0.16 | 0.01 | 91 | 1010.2 |
| 20260905021005 | 61 | 209 | 7.0 | 14.0 | 0.00 | 0.16 | 0.01 | 92 | 1009.9 |
| 20260905015006 | 61 | 187 | 5.0 | 8.0 | 0.00 | 0.16 | 0.01 | 93 | 1010.2 |
| 20260905013007 | 61 | 110 | 2.0 | 15.0 | 0.00 | 0.16 | 0.01 | 93 | 1009.9 |
| 20260905012008 | 62 | 268 | 3.0 | 9.0 | 0.00 | 0.16 | 0.01 | 93 | 1009.7 |
| 20260905011007 | 62 | 271 | 2.0 | 8.0 | 0.00 | 0.16 | 0.01 | 93 | 1009.7 |
| 20260905010005 | 62 | 260 | 4.0 | 7.0 | 0.00 | 0.16 | 0.01 | 93 | 1009.2 |
| 20260905005008 | 62 | 181 | 5.0 | 11.0 | 0.00 | 0.16 | 0.01 | 93 | 1009.4 |
| 20260905004007 | 62 | 280 | 2.0 | 11.0 | 0.00 | 0.16 | 0.01 | 93 | 1009.6 |
| 20260905003007 | 62 | 253 | 9.0 | 13.0 | 0.00 | 0.16 | 0.01 | 93 | 1009.5 |
| 20260905002007 | 62 | 254 | 2.0 | 11.0 | 0.00 | 0.16 | 0.01 | 93 | 1009.0 |
| 20260905001005 | 62 | 138 | 2.0 | 11.0 | 0.00 | 0.16 | 0.01 | 93 | 1008.6 |
| 20260905000014 | 62 | 152 | 1.0 | 15.0 | 0.00 | 0.16 | 0.01 | 93 | 1008.8 |
| 20260904235005 | 62 | 153 | 4.0 | 10.0 | 0.00 | 0.16 | 0.01 | 93 | 1008.8 |
| 20260904234019 | 62 | 150 | 1.0 | 10.0 | 0.00 | 0.16 | 0.01 | 92 | 1008.2 |
| 20260904233018 | 62 | 278 | 4.0 | 13.0 | 0.01 | 0.16 | 0.01 | 92 | 1008.1 |
| 20260904232006 | 62 | 165 | 2.0 | 14.0 | 0.01 | 0.16 | 0.01 | 92 | 1008.3 |
| 20260904230011 | 62 | 37 | 2.0 | 8.0 | 0.01 | 0.15 | 0.01 | 93 | 1008.1 |
| 20260904225007 | 63 | 178 | 0.0 | 11.0 | 0.01 | 0.15 | 0.01 | 94 | 1007.7 |
| 20260904224005 | 63 | 199 | 6.0 | 9.0 | 0.01 | 0.15 | 0.00 | 96 | 1007.5 |
| 20260904222952 | 64 | 113 | 0.0 | 11.0 | 0.00 | 0.15 | 0.00 | 97 | 1007.5 |
| 20260904221955 | 64 | 296 | 1.0 | 8.0 | 0.00 | 0.15 | 0.00 | 98 | 1007.5 |
| 20260904220952 | 64 | 149 | 2.0 | 6.0 | 0.00 | 0.15 | 0.00 | 99 | 1007.1 |
| 20260904214953 | 64 | 239 | 5.0 | 10.0 | 0.00 | 0.15 | 0.15 | 99 | 1006.8 |
| 20260904213953 | 64 | 183 | 2.0 | 7.0 | 0.00 | 0.15 | 0.15 | 99 | 1006.9 |
| 20260904212954 | 63 | 156 | 1.0 | 8.0 | 0.00 | 0.15 | 0.15 | 99 | 1006.7 |
| 20260904211953 | 63 | 220 | 4.0 | 6.0 | 0.00 | 0.15 | 0.15 | 99 | 1006.4 |
| 20260904210953 | 63 | 217 | 0.0 | 6.0 | 0.00 | 0.15 | 0.15 | 99 | 1007.1 |
| 20260904205953 | 63 | 158 | 0.0 | 4.0 | 0.00 | 0.15 | 0.15 | 99 | 1007.5 |
| 20260904204957 | 63 | 119 | 0.0 | 3.0 | 0.00 | 0.15 | 0.15 | 99 | 1006.6 |
| 20260904203953 | 63 | 222 | 1.0 | 7.0 | 0.00 | 0.15 | 0.15 | 98 | 1007.0 |
| 20260904202955 | 63 | 135 | 1.0 | 3.0 | 0.01 | 0.15 | 0.15 | 98 | 1007.0 |
| 20260904201952 | 63 | 174 | 2.0 | 4.0 | 0.03 | 0.15 | 0.15 | 98 | 1007.1 |
| 20260904195954 | 64 | 46 | 2.0 | 7.0 | 0.15 | 0.00 | 0.15 | 98 | 1007.4 |
| 20260904194955 | 65 | 168 | 0.0 | 9.0 | 0.15 | 0.00 | 0.15 | 98 | 1007.1 |
| 20260904193953 | 66 | 296 | 3.0 | 13.0 | 0.15 | 0.00 | 0.15 | 97 | 1007.6 |
| 20260904192953 | 67 | 40 | 3.0 | 9.0 | 0.14 | 0.00 | 0.14 | 97 | 1007.2 |
| 20260904191955 | 68 | 170 | 2.0 | 16.0 | 0.12 | 0.00 | 0.12 | 95 | 1006.9 |
| 20260904185953 | 73 | 180 | 1.0 | 6.0 | 0.00 | 0.00 | 0.00 | 79 | 1005.3 |
| 20260904184953 | 74 | 122 | 1.0 | 8.0 | 0.00 | 0.00 | 0.00 | 74 | 1005.2 |
| 20260904181953 | 73 | 276 | 1.0 | 8.0 | 0.00 | 0.00 | 0.00 | 76 | 1005.0 |
| 20260904174953 | 74 | 170 | 0.0 | 9.0 | 0.00 | 0.00 | 0.00 | 74 | 1005.4 |
| 20260904173954 | 73 | 117 | 4.0 | 14.0 | 0.00 | 0.00 | 0.00 | 75 | 1005.6 |
| 20260904165955 | 73 | 279 | 2.0 | 6.0 | 0.00 | 0.00 | 0.00 | 76 | 1006.1 |
| 20260904164952 | 73 | 45 | 1.0 | 6.0 | 0.00 | 0.00 | 0.00 | 76 | 1006.3 |
| 20260904163952 | 73 | 19 | 8.0 | 11.0 | 0.00 | 0.00 | 0.00 | 74 | 1006.4 |
| 20260904160954 | 73 | 137 | 1.0 | 6.0 | 0.00 | 0.00 | 0.00 | 77 | 1006.9 |
| 20260904155953 | 73 | 161 | 2.0 | 10.0 | 0.00 | 0.00 | 0.00 | 77 | 1007.0 |
| 20260904154953 | 73 | 161 | 0.0 | 6.0 | 0.00 | 0.00 | 0.00 | 77 | 1007.1 |
| 20260904153955 | 74 | 215 | 4.0 | 10.0 | 0.00 | 0.00 | 0.00 | 76 | 1007.2 |
| 20260904150953 | 73 | 291 | 1.0 | 7.0 | 0.00 | 0.00 | 0.00 | 77 | 1007.8 |
| 20260904145956 | 73 | 305 | 4.0 | 8.0 | 0.00 | 0.00 | 0.00 | 77 | 1007.7 |
| 20260904144952 | 72 | 55 | 3.0 | 10.0 | 0.00 | 0.00 | 0.00 | 78 | 1008.0 |
| 20260904143955 | 73 | 350 | 1.0 | 14.0 | 0.00 | 0.00 | 0.00 | 76 | 1008.2 |
| 20260904142953 | 72 | 267 | 5.0 | 11.0 | 0.00 | 0.00 | 0.00 | 78 | 1008.5 |
| 20260904141008 | 71 | 251 | 2.0 | 10.0 | 0.00 | 0.00 | 0.00 | 79 | 1009.0 |
| 20260904135006 | 73 | 113 | 1.0 | 9.0 | 0.00 | 0.00 | 0.00 | 78 | 1009.1 |
| 20260904133958 | 73 | 171 | 2.0 | 10.0 | 0.00 | 0.00 | 0.00 | 76 | 1009.4 |
| 20260904132953 | 72 | 146 | 0.0 | 7.0 | 0.00 | 0.00 | 0.00 | 78 | 1009.4 |
| 20260904131955 | 71 | 118 | 2.0 | 6.0 | 0.00 | 0.00 | 0.00 | 77 | 1009.7 |
| 20260904130953 | 72 | 258 | 2.0 | 7.0 | 0.00 | 0.00 | 0.00 | 76 | 1009.8 |
| 20260904125953 | 71 | 105 | 0.0 | 7.0 | 0.00 | 0.00 | 0.00 | 76 | 1010.3 |
| 20260904123955 | 71 | 206 | 2.0 | 9.0 | 0.00 | 0.00 | 0.00 | 76 | 1010.5 |
| 20260904122953 | 72 | 146 | 0.0 | 6.0 | 0.00 | 0.00 | 0.00 | 77 | 1010.8 |
| 20260904121953 | 71 | 199 | 1.0 | 11.0 | 0.00 | 0.00 | 0.00 | 73 | 1011.1 |
| 20260904115953 | 72 | 276 | 2.0 | 13.0 | 0.00 | 0.00 | 0.00 | 74 | 1011.0 |
| 20260904114953 | 73 | 304 | 2.0 | 11.0 | 0.00 | 0.00 | 0.00 | 74 | 1011.3 |
| 20260904113954 | 73 | 149 | 2.0 | 9.0 | 0.00 | 0.00 | 0.00 | 76 | 1011.4 |
| 20260904111953 | 71 | 152 | 1.0 | 14.0 | 0.00 | 0.00 | 0.00 | 79 | 1012.0 |
| 20260904110955 | 72 | 209 | 1.0 | 10.0 | 0.00 | 0.00 | 0.00 | 76 | 1012.0 |
| 20260904105953 | 71 | 243 | 3.0 | 11.0 | 0.00 | 0.00 | 0.00 | 78 | 1012.2 |
| 20260904104953 | 70 | 156 | 3.0 | 11.0 | 0.00 | 0.00 | 0.00 | 77 | 1012.5 |
| 20260904102953 | 71 | 187 | 6.0 | 8.0 | 0.00 | 0.00 | 0.00 | 74 | 1012.3 |
| 20260904101952 | 71 | 334 | 2.0 | 8.0 | 0.00 | 0.00 | 0.00 | 76 | 1012.6 |
| 20260904100954 | 69 | 224 | 2.0 | 9.0 | 0.00 | 0.00 | 0.00 | 78 | 1012.8 |
| 20260904095953 | 70 | 42 | 2.0 | 10.0 | 0.00 | 0.00 | 0.00 | 76 | 1013.0 |
| 20260904092953 | 70 | 199 | 2.0 | 11.0 | 0.00 | 0.00 | 0.00 | 76 | 1013.1 |
| 20260904091952 | 70 | 249 | 4.0 | 9.0 | 0.00 | 0.00 | 0.00 | 76 | 1013.0 |
| 20260904090953 | 69 | 20 | 2.0 | 11.0 | 0.00 | 0.00 | 0.00 | 79 | 1013.4 |
| 20260904082954 | 66 | 281 | 5.0 | 11.0 | 0.00 | 0.00 | 0.00 | 83 | 1013.6 |
| 20260904081953 | 67 | 98 | 1.0 | 7.0 | 0.00 | 0.00 | 0.00 | 84 | 1013.6 |
| 20260904075955 | 66 | 164 | 3.0 | 7.0 | 0.00 | 0.00 | 0.00 | 86 | 1013.4 |
| 20260904074942 | 66 | 197 | 2.0 | 8.0 | 0.00 | 0.00 | 0.00 | 86 | 1013.5 |
| 20260904073943 | 66 | 242 | 3.0 | 9.0 | 0.00 | 0.00 | 0.00 | 87 | 1013.3 |
| 20260904072941 | 66 | 168 | 0.0 | 9.0 | 0.00 | 0.00 | 0.00 | 87 | 1013.6 |
| 20260904071955 | 65 | 136 | 1.0 | 4.0 | 0.00 | 0.00 | 0.00 | 87 | 1013.3 |
| 20260904070941 | 65 | 188 | 3.0 | 7.0 | 0.00 | 0.00 | 0.00 | 88 | 1013.5 |
| 20260904064954 | 65 | 187 | 2.0 | 7.0 | 0.00 | 0.00 | 0.00 | 89 | 1013.5 |
| 20260904063941 | 65 | 144 | 0.0 | 7.0 | 0.00 | 0.00 | 0.00 | 89 | 1014.2 |
| 20260904060941 | 63 | 199 | 0.0 | 7.0 | 0.00 | 0.00 | 0.00 | 92 | 1013.9 |
| 20260904055941 | 63 | 249 | 6.0 | 7.0 | 0.00 | 0.00 | 0.00 | 92 | 1014.0 |
| 20260904053943 | 62 | 251 | 3.0 | 4.0 | 0.00 | 0.00 | 0.00 | 93 | 1013.6 |
| 20260904052941 | 62 | 146 | 0.0 | 2.0 | 0.00 | 0.00 | 0.00 | 93 | 1013.7 |
| 20260904051941 | 62 | 200 | 2.0 | 3.0 | 0.00 | 0.00 | 0.00 | 93 | 1013.4 |
| 20260904050940 | 62 | 303 | 4.0 | 6.0 | 0.00 | 0.00 | 0.00 | 93 | 1013.7 |
| 20260904045943 | 62 | 139 | 0.0 | 8.0 | 0.00 | 0.00 | 0.00 | 93 | 1013.8 |
| 20260904043943 | 62 | 150 | 1.0 | 4.0 | 0.00 | 0.00 | 0.00 | 93 | 1014.0 |
| 20260904041941 | 62 | 176 | 3.0 | 6.0 | 0.00 | 0.00 | 0.00 | 92 | 1014.2 |
| 20260904040943 | 62 | 207 | 1.0 | 4.0 | 0.00 | 0.00 | 0.00 | 92 | 1014.2 |
| 20260904035940 | 62 | 157 | 0.0 | 9.0 | 0.00 | 0.00 | 0.00 | 92 | 1014.0 |